Theta_e
309 310 309 310 309 310 312 315 317 316 316 320 322 325 327 322 321 323 322 320 322 323 319 318 319 317 317 318 317 318 319 319 318 318 319 318 318 318 319 319 319 319 319 318 318 318 317 317 317 317 317 318 318 318 319 318 318 319 319 320 323 324 323 316 313 317 319 321 322 322 323 323 322 322 322 323 321 318 317 316 317 317 316 319 320 319 330
309 310 309 310 309 310 312 315 317 318 318 320 322 328 326 321 322 323 321 320 321 321 319 318 318 317 317 318 317 317 318 318 319 319 319 319 319 319 319 319 319 320 320 320 319 318 316 316 317 318 318 318 318 318 318 319 321 322 323 324 322 321 321 318 314 315 316 316 318 319 320 321 321 322 324 326 325 325 323 321 322 320 315 319 320 317 328
309 310 309 310 310 309 311 316 318 318 319 320 322 329 325 320 321 321 320 320 320 319 319 318 318 318 318 318 317 317 317 317 318 319 319 319 319 319 319 319 320 320 320 319 319 319 317 316 318 319 318 319 318 317 318 319 320 324 327 329 325 321 323 321 315 313 313 315 315 315 317 320 321 323 325 326 325 326 323 318 318 317 317 320 318 316 331
308 310 309 309 310 309 311 315 318 318 320 320 323 328 326 320 321 320 318 319 318 318 319 318 318 318 318 318 317 317 317 317 317 318 319 319 319 319 319 319 320 319 319 319 319 319 319 318 319 320 319 319 318 317 319 318 319 328 330 327 325 325 325 325 322 316 315 317 318 320 321 319 317 321 324 325 326 329 326 318 315 317 318 320 321 323 332
307 309 309 309 310 309 310 314 317 319 320 321 323 328 325 321 322 321 321 320 318 319 318 317 318 318 318 319 318 317 317 317 317 318 319 319 319 319 319 319 319 320 319 319 319 319 319 319 320 320 319 319 318 317 318 317 321 330 330 322 323 325 320 322 325 320 318 321 321 322 323 320 319 321 323 325 327 329 325 318 319 323 318 317 329 334 328
306 308 308 309 310 309 310 313 316 319 321 321 324 328 325 323 324 324 324 323 319 319 320 318 318 317 317 318 318 317 317 317 317 318 318 319 318 319 320 319 319 320 320 320 320 321 321 320 321 321 320 320 319 317 318 317 319 325 322 318 324 323 317 320 323 319 320 323 321 322 323 322 322 323 323 325 327 327 324 322 327 332 324 321 335 341 331
310 310 309 309 310 309 310 313 316 318 320 323 327 329 326 324 325 324 325 325 322 321 321 319 317 318 319 319 318 318 317 318 318 318 318 319 317 318 320 319 318 319 321 321 323 323 321 319 321 323 321 320 320 318 318 318 318 319 318 320 324 322 319 324 323 319 320 322 321 322 322 320 322 323 324 325 327 328 328 329 333 336 334 333 338 341 342
317 316 313 310 309 310 310 312 316 317 320 326 330 329 328 327 327 326 324 323 322 320 319 319 318 319 321 320 319 318 318 318 318 318 318 319 319 318 319 319 319 319 321 321 322 323 322 321 322 322 321 320 320 320 319 318 319 319 318 320 322 320 320 325 323 318 317 320 322 321 320 320 319 321 324 324 326 329 329 332 333 332 335 341 341 340 345
319 319 317 313 310 310 309 311 316 318 320 327 329 327 328 329 328 329 328 322 322 321 318 319 319 318 319 320 319 318 318 318 318 317 317 318 319 319 319 319 319 319 320 321 320 319 321 321 320 319 320 319 319 319 319 319 320 320 319 320 322 320 319 322 321 316 314 318 320 319 320 319 316 319 325 325 324 326 329 334 337 335 336 339 336 334 342
319 319 319 316 312 310 309 310 316 319 320 324 327 325 327 330 328 329 330 323 321 321 318 318 319 318 320 321 320 319 317 316 318 318 316 316 316 317 318 318 319 320 321 320 319 317 318 318 317 317 318 317 317 317 317 318 319 321 320 320 321 321 320 318 318 314 313 316 319 318 318 316 315 320 329 330 328 329 330 333 338 340 340 336 333 336 345
319 318 318 318 314 310 309 310 313 319 321 322 325 324 324 328 330 330 328 322 320 320 318 319 319 318 320 321 319 318 316 316 318 320 318 316 315 316 316 317 318 320 319 318 317 317 317 316 316 316 317 317 317 317 317 317 318 320 321 320 321 322 321 319 318 315 313 315 318 318 316 315 318 326 330 332 333 332 332 333 335 339 340 338 339 343 346
319 318 318 318 316 311 309 309 311 316 320 321 323 324 322 324 329 330 328 323 319 319 319 319 320 318 318 319 317 317 317 316 318 319 318 317 316 316 316 318 319 320 318 317 317 316 317 317 317 317 317 318 318 317 317 318 318 318 319 319 321 322 320 320 320 316 313 315 316 315 315 318 324 327 326 328 331 331 333 337 337 338 339 339 341 343 343
318 318 317 318 317 312 308 309 310 312 316 320 323 324 322 323 328 330 329 324 319 319 320 319 319 318 317 318 318 318 318 318 318 318 318 318 318 317 317 318 319 319 318 316 317 317 318 318 318 318 317 318 319 318 318 318 318 318 318 318 321 321 320 320 319 317 315 314 313 315 319 322 325 326 325 326 329 329 331 335 337 337 337 339 341 343 344
317 318 317 317 317 312 307 310 311 310 312 317 322 324 323 323 327 329 330 327 321 320 321 319 318 319 318 318 319 319 319 319 319 319 319 319 319 319 318 318 320 319 318 317 318 319 319 319 317 315 316 318 318 319 319 319 318 318 318 318 319 321 321 319 317 317 316 312 311 317 321 323 325 328 326 325 327 327 328 332 335 334 334 338 342 342 342
316 317 318 317 314 309 307 310 312 311 310 313 318 323 323 321 323 327 330 329 323 319 321 321 319 320 319 318 319 320 319 319 320 320 320 320 320 319 318 320 321 320 319 318 320 321 320 318 314 311 312 314 316 318 319 319 319 318 318 319 319 319 321 320 317 317 317 314 313 314 316 320 326 327 326 325 325 325 327 331 333 330 328 332 339 341 341
315 316 317 315 310 306 306 310 312 311 311 310 315 323 324 319 320 326 328 328 325 321 322 323 321 320 320 319 320 320 320 320 320 320 321 321 321 320 319 321 321 320 319 319 320 321 319 317 314 312 313 316 317 318 319 319 319 320 319 319 319 318 321 320 317 315 315 315 314 312 314 322 328 326 325 325 324 326 327 329 330 328 326 327 332 337 340
315 316 317 314 307 304 307 312 312 311 312 310 311 320 324 318 317 323 327 326 325 322 320 322 321 320 320 319 320 321 321 321 321 321 322 322 321 320 320 320 321 320 320 320 320 320 319 317 315 313 316 321 320 318 319 318 319 320 320 320 319 319 321 319 316 314 314 314 314 313 318 326 327 325 324 324 323 326 327 327 328 328 326 326 329 334 338
315 315 317 313 306 304 309 313 312 311 312 310 309 318 322 316 315 322 326 325 324 321 319 320 321 321 321 320 322 321 321 322 322 321 322 322 322 322 321 321 321 320 321 321 320 320 318 318 318 316 317 322 322 319 319 319 319 320 322 321 320 320 320 318 316 314 314 314 312 313 321 327 326 324 325 324 323 326 327 326 327 327 326 327 328 331 335
314 314 315 311 304 305 311 313 312 311 311 311 311 318 321 315 315 322 326 325 323 321 320 321 320 320 321 321 321 321 321 322 322 320 321 322 323 322 321 321 322 321 320 320 320 320 319 318 320 319 318 320 323 321 320 321 322 324 324 322 320 320 319 318 317 316 315 315 313 312 321 327 325 324 326 324 324 327 326 326 326 326 326 328 329 331 334
314 314 314 309 304 307 312 313 312 311 311 310 311 316 320 316 315 320 324 326 325 321 320 321 321 320 320 320 319 320 320 321 320 319 320 322 323 322 321 322 323 321 321 321 320 320 319 319 321 320 319 320 323 322 321 323 325 326 325 323 323 322 319 316 318 318 317 316 314 313 321 326 325 324 327 326 324 325 325 325 326 327 327 329 330 332 335
314 314 313 309 304 307 312 313 312 311 311 311 311 316 321 319 317 318 320 324 327 322 319 322 323 321 321 320 320 319 318 319 319 319 320 323 324 323 322 323 323 321 322 322 321 320 321 321 321 321 321 321 322 321 321 322 323 325 325 324 324 325 321 319 321 322 319 319 321 321 324 325 324 324 326 326 324 324 324 325 327 328 328 329 330 333 335
313 313 313 309 305 308 312 313 311 311 311 312 314 319 323 322 319 317 319 323 328 324 321 322 323 321 321 320 320 320 319 318 319 320 320 322 323 323 323 323 323 323 323 322 321 321 321 321 321 320 321 321 320 322 322 320 320 323 324 323 324 326 326 324 325 325 322 323 326 326 325 324 323 323 324 324 323 323 324 325 327 328 328 329 330 332 333
313 313 313 310 307 308 312 313 311 311 312 314 317 320 323 322 319 318 321 325 326 323 321 322 321 320 320 320 319 319 319 319 320 321 322 323 322 322 323 323 324 324 324 324 324 322 320 321 321 320 321 321 320 322 321 318 319 323 323 323 324 325 325 325 326 325 324 324 325 325 324 324 323 323 323 322 323 323 324 325 326 327 327 328 329 330 331
313 312 312 310 307 308 313 313 311 311 315 317 318 319 320 321 319 319 324 326 323 320 320 320 320 320 320 320 319 319 319 320 320 321 321 323 323 322 322 324 325 325 325 325 326 324 321 322 321 320 322 323 321 320 319 319 321 322 321 322 325 324 322 324 325 324 323 324 325 325 325 324 323 323 322 322 322 323 323 323 324 325 326 326 327 328 329
313 312 312 310 307 308 313 314 311 312 316 319 319 319 321 322 320 321 326 327 323 321 320 319 320 320 320 319 320 319 319 320 321 321 321 322 322 322 324 324 325 327 325 324 325 323 320 321 321 318 321 324 322 321 320 320 322 322 320 321 325 324 322 322 324 324 324 325 325 325 324 323 323 323 322 322 322 323 323 322 322 323 325 326 327 328 327
313 312 311 310 307 308 313 314 311 312 316 319 319 319 321 321 319 321 326 328 325 322 320 319 319 319 319 320 320 320 319 320 321 321 321 320 321 322 324 324 324 325 324 322 323 322 320 320 320 318 321 323 322 321 321 320 321 322 321 322 324 322 321 322 323 322 322 324 325 325 324 324 324 322 322 321 321 322 323 322 322 322 323 325 327 327 327
313 312 311 310 307 309 313 314 311 311 315 319 319 319 320 320 319 320 323 326 326 321 319 320 320 319 321 322 320 320 320 320 320 320 320 320 320 321 322 323 323 323 322 321 321 320 319 319 319 320 321 323 322 322 322 322 321 320 320 322 322 320 320 321 320 318 320 323 325 324 324 324 324 323 321 321 321 322 323 323 322 322 322 323 325 326 326
312 312 310 308 307 310 313 313 311 312 315 318 319 319 319 319 318 318 319 321 325 325 320 319 320 319 320 322 321 320 320 320 320 321 321 321 321 321 321 322 322 321 321 321 320 319 319 320 321 321 321 322 322 322 321 321 320 319 320 322 321 321 322 322 320 320 321 323 324 323 323 323 323 321 321 321 321 321 322 322 323 322 322 322 323 324 325
312 312 309 307 307 312 314 313 313 314 316 318 320 321 321 319 317 317 316 317 322 327 323 318 320 320 320 322 321 321 321 320 321 321 321 321 322 321 322 323 322 321 321 321 320 320 320 321 321 321 322 323 323 321 320 319 319 320 322 323 322 322 323 323 322 322 322 322 322 321 321 321 321 320 320 320 321 321 320 321 322 323 323 323 323 324 324
311 311 308 306 308 313 315 315 315 316 317 319 321 323 324 322 319 318 317 315 319 325 324 319 319 322 322 322 322 321 321 321 321 322 322 322 322 323 324 323 322 322 321 320 320 321 320 320 321 321 322 322 322 320 318 318 318 321 323 323 321 321 321 321 321 321 321 321 321 321 321 321 320 320 320 320 321 321 320 320 322 323 323 322 323 324 324
311 310 307 306 310 315 316 316 317 317 318 321 324 323 322 323 321 319 318 316 318 324 325 320 321 323 322 323 324 323 322 322 322 323 323 322 322 322 323 322 321 322 321 320 320 321 320 320 321 322 322 321 321 320 319 317 317 321 323 322 321 321 321 320 320 320 320 321 321 320 320 320 319 320 320 320 320 321 321 321 322 322 322 322 322 322 323
311 309 306 307 312 315 316 316 317 318 318 320 322 321 320 321 319 318 318 319 321 325 326 322 322 323 322 323 324 324 322 322 322 322 322 322 322 321 321 321 321 321 321 320 320 320 321 321 321 321 322 320 320 320 319 316 317 321 323 322 320 320 320 320 320 320 319 319 320 320 320 319 319 319 319 319 320 320 320 321 322 321 322 322 321 321 321
312 309 306 309 313 316 316 316 318 318 317 318 319 319 318 318 317 317 319 322 325 327 326 322 322 323 323 323 323 323 323 322 322 322 323 323 322 321 321 320 319 320 320 320 320 320 320 319 319 320 321 320 320 320 318 318 319 322 322 321 321 320 319 318 319 319 318 318 319 319 319 319 319 319 319 318 319 319 319 319 320 321 321 322 321 321 321
312 308 307 311 315 316 316 318 318 318 318 320 322 321 319 318 318 316 318 323 327 326 324 323 323 323 323 323 323 323 323 323 322 323 323 323 323 322 321 320 319 320 320 320 319 319 319 319 319 320 320 320 320 318 318 319 322 322 321 320 320 319 318 317 317 318 317 317 317 317 318 318 319 318 318 317 317 318 318 319 319 319 319 319 320 321 321
312 309 310 314 316 316 318 319 320 320 321 322 323 321 318 318 318 316 317 323 326 323 321 322 323 323 323 323 323 323 323 323 323 323 324 323 323 323 322 320 320 320 321 320 319 319 319 319 318 319 319 320 319 317 317 319 322 321 320 321 320 319 318 318 318 317 317 316 316 316 317 317 318 317 316 316 316 317 317 317 317 318 318 318 319 320 320
312 310 312 315 316 318 320 321 322 323 323 322 322 319 317 317 317 316 317 322 324 323 321 321 321 322 322 323 323 324 323 323 323 323 322 322 322 322 322 321 321 321 321 320 319 319 320 319 318 318 319 318 317 317 318 319 321 321 321 320 320 319 319 318 317 317 316 316 316 316 316 316 316 316 316 316 316 316 316 316 315 316 317 317 317 319 319
310 311 314 316 318 320 323 323 322 322 320 320 319 318 317 318 319 319 321 323 324 324 324 322 320 321 321 322 323 323 322 322 323 323 322 322 322 322 321 321 322 322 321 320 320 320 320 319 318 318 319 318 318 320 321 320 320 321 320 320 320 319 318 318 317 316 316 317 316 316 315 315 314 315 314 314 314 314 314 314 314 314 315 315 316 317 318
311 314 317 319 321 322 322 322 321 320 319 319 320 320 321 322 322 322 322 323 323 323 323 322 321 322 321 321 322 323 323 322 323 322 322 322 322 322 321 321 322 321 320 321 321 320 320 320 319 319 320 320 320 323 323 320 320 321 320 320 320 319 318 318 317 316 316 316 316 316 314 314 314 313 312 312 312 312 312 313 313 312 313 313 314 315 316
314 318 320 322 322 322 322 321 319 318 319 320 322 322 323 323 323 322 322 322 322 322 321 321 322 322 321 321 322 322 322 322 322 322 322 322 322 321 321 321 321 320 320 321 321 319 319 320 320 319 319 319 321 324 324 322 321 321 321 320 320 319 318 318 317 316 316 315 315 314 313 312 312 311 311 311 310 310 311 311 311 310 311 311 312 313 314
318 321 322 322 322 321 320 318 317 318 321 323 323 323 323 323 323 323 323 321 321 321 321 321 322 323 322 323 323 322 321 321 322 322 322 321 320 319 320 321 320 319 319 319 320 319 318 318 318 318 317 317 320 324 324 322 321 322 321 321 320 319 318 318 317 316 315 314 313 312 312 311 311 311 310 310 310 310 310 310 310 310 310 310 310 311 311
321 322 321 320 319 318 318 318 319 321 322 322 322 323 323 323 323 323 322 322 321 321 321 321 321 322 322 323 323 322 321 321 321 321 321 321 319 318 319 320 319 318 319 319 319 318 318 318 318 318 316 317 323 326 324 322 321 322 322 321 320 318 317 317 316 315 314 314 313 312 312 311 310 310 310 310 310 310 310 310 310 310 310 310 310 310 310
317 318 318 317 316 317 319 320 321 322 322 322 322 322 323 324 324 323 323 323 322 322 323 323 322 322 323 322 322 322 322 321 320 320 321 321 319 318 319 320 319 318 319 319 318 317 319 319 317 316 316 320 325 325 323 322 322 321 321 320 318 317 317 316 316 315 314 313 313 312 311 311 310 310 311 310 310 310 310 310 310 310 310 310 310 310 310
313 315 317 318 319 319 320 321 321 321 321 321 322 323 323 323 323 323 323 323 322 323 324 324 323 323 322 322 322 322 322 321 320 320 320 320 319 318 319 320 319 319 319 318 317 318 319 318 316 316 319 323 325 324 323 323 322 321 320 319 318 317 316 315 315 314 312 312 312 312 311 310 310 310 310 309 309 310 310 310 310 310 310 310 309 310 310
315 317 319 321 320 319 320 320 321 322 322 320 320 322 323 322 322 323 323 323 323 323 323 323 323 323 322 322 321 322 321 320 320 321 321 320 319 319 319 319 319 318 318 317 317 318 318 317 316 318 323 325 323 323 323 323 321 320 319 318 318 317 315 314 314 313 312 311 311 311 310 310 309 309 309 309 309 310 310 310 310 310 310 309 309 309 309
319 319 320 320 318 316 317 318 318 320 322 321 319 320 321 321 322 323 322 322 322 323 322 323 323 323 323 323 322 322 322 321 320 321 321 320 320 319 319 319 319 318 318 318 318 317 318 317 315 317 323 324 323 322 322 322 321 319 318 317 316 316 315 314 314 313 312 311 310 310 309 310 309 309 309 310 310 310 310 310 310 310 310 310 310 310 309
320 318 317 317 315 315 316 316 316 319 321 320 319 320 321 322 323 323 321 321 322 322 322 322 323 323 324 324 323 322 322 322 321 321 320 320 321 320 319 319 319 319 319 320 319 318 317 316 314 316 322 325 323 322 322 321 320 319 317 316 315 315 314 314 313 312 311 310 310 309 309 309 309 309 310 309 309 309 309 309 308 309 309 309 309 309 310
319 317 315 314 314 314 315 316 317 319 319 319 320 321 321 322 322 322 321 321 321 322 322 323 323 324 324 323 323 323 323 322 322 322 321 321 321 320 319 319 319 320 320 321 321 319 316 314 316 320 324 324 323 321 320 319 318 317 316 315 314 314 314 313 311 311 310 310 309 309 309 309 309 309 309 308 308 308 308 308 308 308 308 308 308 308 309
317 316 315 314 314 314 315 316 316 317 317 318 319 320 320 321 321 321 322 321 321 323 323 323 323 324 323 322 323 324 324 323 323 322 321 320 320 320 319 320 321 321 320 321 320 317 315 316 319 323 324 322 321 320 319 318 317 316 315 314 314 313 312 312 311 310 310 309 309 309 309 309 309 309 308 308 308 308 308 308 308 308 308 308 308 308 308
317 317 316 315 315 314 315 316 316 316 318 319 318 319 319 320 321 322 322 322 322 323 324 324 324 325 324 323 323 323 323 323 323 322 321 320 321 320 320 321 322 321 320 319 318 317 317 320 322 323 322 321 320 319 318 317 316 315 314 314 313 312 311 310 310 309 309 309 309 309 309 309 308 308 308 308 308 307 307 307 308 308 308 307 307 308 308
318 317 316 316 316 315 315 315 316 316 318 319 318 319 320 320 321 322 323 323 324 324 323 323 323 323 322 321 321 322 322 323 322 321 321 322 322 322 322 322 322 321 320 319 318 317 318 320 321 321 321 320 319 318 316 315 315 315 313 312 311 310 310 309 309 309 309 309 309 309 309 309 309 309 309 309 308 307 307 307 307 308 307 307 307 307 308
315 315 315 316 316 315 315 314 314 316 317 318 319 320 320 320 320 322 324 324 324 325 325 324 324 323 321 321 321 321 321 321 321 322 323 323 322 322 323 323 322 319 319 318 318 319 319 319 320 321 321 319 318 317 316 315 314 313 311 310 310 309 308 308 309 309 309 309 309 309 309 309 309 309 309 309 308 307 307 307 307 307 307 307 307 308 308
313 313 314 315 315 314 314 314 314 314 315 315 317 318 318 318 320 322 324 324 324 325 325 325 324 322 321 321 321 321 321 320 320 321 322 321 320 322 323 323 321 319 319 319 318 318 318 319 320 320 320 319 317 316 315 314 313 311 310 309 308 308 308 309 309 309 309 309 309 309 308 309 308 308 308 308 308 307 307 307 307 307 308 308 307 307 308
Wind_Speed
24 25 26 27 28 29 30 32 33 32 27 18 11 7 3 3 2 4 4 5 4 6 2 4 1 3 4 3 3 3 3 3 4 4 4 4 3 3 4 4 4 4 3 2 3 2 2 2 2 3 5 6 6 6 6 4 4 5 2 3 2 2 3 5 5 4 1 4 4 3 2 6 9 9 10 8 9 11 9 9 8 8 10 9 7 8 3
24 25 26 27 28 29 30 31 33 30 25 19 13 5 1 1 2 3 3 4 4 5 2 4 3 5 5 4 5 4 5 6 6 6 7 6 4 3 5 5 4 4 3 2 3 1 0 2 3 3 4 5 5 5 6 4 3 2 3 2 0 2 2 4 5 6 5 6 7 6 7 9 8 7 6 5 9 10 8 7 6 6 10 11 9 9 3
24 25 26 28 28 28 29 31 32 28 22 17 10 3 0 1 2 2 2 2 2 2 1 1 4 5 5 5 5 3 4 5 5 6 7 7 5 4 4 4 3 3 2 3 4 2 0 2 2 2 4 5 4 5 6 5 4 4 5 5 3 3 2 3 6 7 6 5 5 4 6 7 5 3 2 4 9 11 8 7 6 7 9 10 10 8 2
23 25 27 28 28 28 28 30 31 27 20 15 7 4 2 2 3 3 3 2 1 2 1 1 3 5 4 4 3 1 4 5 3 4 5 6 7 4 3 2 1 1 1 2 4 3 2 2 3 3 3 4 4 5 5 5 6 5 3 5 4 3 1 1 4 5 2 1 3 3 0 4 5 4 3 4 6 9 9 9 9 8 7 8 9 8 3
23 25 27 28 28 29 28 29 31 27 19 13 6 3 3 2 2 1 2 2 2 3 3 2 3 3 1 1 1 1 2 4 3 4 4 5 5 3 4 3 1 1 1 1 3 3 3 4 4 3 3 3 4 3 2 5 5 3 3 3 4 3 3 0 2 1 3 4 5 5 2 2 3 3 3 3 4 6 10 10 7 5 8 8 5 6 8
23 25 26 28 28 29 28 28 30 26 17 11 5 2 1 1 1 1 1 1 2 3 3 2 3 4 2 0 1 2 2 2 2 3 3 3 3 2 3 5 4 4 2 0 2 3 3 5 4 3 2 1 2 3 2 5 4 3 2 0 3 4 3 1 1 3 5 4 4 3 2 2 2 2 2 2 4 5 8 8 3 3 6 5 1 5 10
24 25 26 27 28 29 29 28 30 26 15 8 5 2 0 0 2 2 2 1 2 3 3 3 4 4 3 2 2 2 2 3 3 3 1 2 4 3 2 5 5 5 3 1 2 2 2 4 4 2 2 1 1 1 2 3 4 3 1 2 2 3 1 1 3 2 4 4 3 2 2 2 2 2 3 1 3 3 3 4 0 1 2 3 2 6 6
25 26 26 27 27 28 28 28 30 27 15 7 5 4 2 1 1 1 2 2 3 3 4 4 4 4 2 2 3 1 2 4 4 3 4 2 3 2 2 5 5 5 5 3 5 5 5 5 5 3 2 1 2 2 2 2 3 3 2 2 1 2 1 1 4 5 3 2 1 2 3 2 2 2 4 2 2 1 0 0 1 1 1 3 2 5 3
25 26 26 26 26 27 27 27 28 28 18 8 4 6 5 4 2 2 2 3 2 2 4 3 3 3 2 2 4 3 3 5 5 5 5 5 4 3 2 4 3 3 6 6 7 6 5 5 5 4 4 3 3 2 3 4 3 2 3 3 2 2 2 3 5 7 6 2 1 1 3 4 3 3 7 6 2 1 3 3 4 3 2 2 2 3 1
24 26 27 26 25 25 26 25 26 27 23 14 5 5 8 4 1 2 4 2 2 2 4 4 3 1 3 3 4 3 5 5 3 3 4 4 5 4 3 2 1 1 4 6 6 5 4 5 4 3 3 3 2 2 2 4 4 3 3 2 2 3 3 3 4 6 7 6 4 3 4 6 4 3 8 9 5 4 3 3 5 5 4 3 2 1 3
22 24 26 26 24 23 24 23 23 24 23 18 8 7 10 6 2 2 4 3 3 3 4 4 2 2 4 5 5 5 6 5 1 1 2 3 4 4 2 2 3 0 4 5 4 4 4 3 2 1 1 1 1 0 0 1 2 3 3 2 2 3 3 1 2 5 7 6 5 7 8 7 2 4 7 8 7 8 6 4 7 6 3 3 2 2 2
20 22 25 25 23 22 22 21 20 19 19 17 10 8 10 7 4 3 3 3 4 4 4 2 2 3 6 6 6 5 5 4 2 1 2 5 4 2 3 2 2 2 4 4 3 2 1 2 2 2 2 1 1 2 1 1 1 1 2 3 2 2 2 2 2 4 4 3 5 10 9 4 3 5 8 8 6 8 7 3 6 8 5 4 4 3 2
19 21 23 24 22 20 20 20 18 16 15 14 10 8 10 8 4 3 3 3 4 4 3 3 4 5 7 7 6 6 5 5 4 4 4 5 4 3 4 3 3 4 5 4 3 3 4 4 3 3 4 4 3 3 2 2 2 1 1 2 4 3 3 2 2 3 3 4 7 7 3 4 4 3 9 10 7 9 7 0 5 11 9 6 6 4 2
18 21 23 23 20 18 18 18 16 14 13 13 8 6 10 10 5 3 3 3 2 3 2 4 6 6 7 8 8 7 7 6 4 4 4 3 3 4 4 4 4 5 4 3 2 4 4 3 3 4 5 5 5 4 4 3 3 3 2 2 2 4 3 3 2 2 3 6 6 4 5 4 3 4 8 9 6 8 7 1 5 11 11 8 6 4 2
18 20 22 22 19 17 17 17 15 13 12 11 8 4 8 12 7 4 4 3 2 4 2 2 5 8 8 8 7 5 5 5 4 4 4 2 1 3 3 3 4 3 2 2 2 3 3 3 4 4 5 5 4 4 5 4 3 3 2 1 1 2 2 2 3 2 3 6 6 5 7 4 3 7 8 8 6 5 5 3 2 10 14 13 9 5 2
18 20 22 21 19 17 17 15 14 13 11 11 9 3 6 14 11 4 4 3 2 3 2 3 3 6 7 5 4 2 2 3 2 2 4 4 2 2 2 1 2 2 2 3 2 2 3 3 3 3 2 2 1 2 3 4 4 3 1 1 1 1 1 2 4 4 3 5 7 6 5 1 6 9 9 9 7 4 4 5 2 8 15 16 12 7 2
17 19 21 21 19 17 16 14 12 12 11 11 10 3 4 14 14 5 4 3 1 2 4 3 1 4 4 3 3 1 0 1 0 1 1 3 2 1 0 0 1 0 2 3 2 3 3 2 3 2 1 2 1 1 2 2 4 4 3 3 2 2 2 3 4 3 1 3 6 4 1 4 8 12 11 10 8 4 5 6 1 10 15 15 14 11 4
16 19 21 21 19 17 16 13 11 11 10 10 9 3 3 12 15 7 4 3 1 2 4 2 1 1 2 2 2 3 1 0 0 2 1 1 1 0 2 2 1 2 2 3 3 3 3 2 2 2 2 3 2 2 2 2 3 2 1 2 2 2 2 2 3 2 1 2 5 3 4 5 10 13 11 11 8 3 4 2 4 10 14 13 13 13 8
16 19 20 19 17 16 15 12 11 10 9 9 8 3 3 12 14 8 3 3 0 3 4 2 1 2 4 3 3 3 1 1 1 2 2 2 2 1 1 1 1 0 1 2 2 2 2 2 1 2 1 4 2 1 1 1 0 1 1 2 2 2 2 2 3 3 1 1 4 3 4 5 11 12 9 10 7 3 1 6 7 10 12 11 12 12 9
15 19 20 18 16 15 14 12 10 9 8 9 8 3 4 11 14 9 4 2 0 4 5 3 3 5 4 3 3 3 1 1 1 3 3 1 2 2 3 3 2 1 1 2 1 1 2 1 2 1 2 2 2 1 1 2 2 2 1 2 1 2 3 3 1 1 3 3 4 3 2 6 12 10 6 8 6 2 4 7 8 9 10 10 10 9 7
14 17 20 18 16 15 13 11 10 8 7 8 7 3 3 9 11 8 5 3 2 3 5 3 4 7 7 7 7 6 4 3 2 2 2 2 2 3 2 1 2 1 0 1 0 1 1 1 2 1 1 1 1 1 1 3 4 3 1 2 0 1 3 3 1 2 3 4 1 1 2 5 9 7 4 5 5 4 5 7 7 8 9 8 8 7 6
14 16 18 18 17 15 13 11 9 8 7 6 6 4 3 7 9 6 5 4 2 3 5 4 6 8 8 9 9 7 7 6 4 3 2 1 1 2 1 2 2 2 2 2 1 1 1 1 1 1 1 1 2 1 0 2 2 4 2 2 0 2 3 3 2 2 3 3 3 4 3 4 5 5 4 4 3 3 5 6 6 7 8 7 7 7 6
14 16 17 18 18 15 12 10 8 7 6 6 6 5 4 7 7 3 2 2 2 5 7 6 7 7 8 9 9 8 7 6 4 2 3 1 2 1 1 1 2 1 1 2 3 2 0 1 1 1 1 0 1 2 3 3 2 3 2 1 2 4 2 3 2 2 3 2 3 3 3 4 5 4 4 4 4 4 5 6 6 7 8 8 8 8 6
14 16 16 17 17 15 13 10 6 5 5 5 7 6 6 9 8 3 0 1 3 5 6 6 5 4 6 7 7 7 7 7 4 3 2 3 2 1 2 2 1 1 2 1 2 2 1 1 1 2 1 1 2 3 3 2 1 1 1 2 5 4 1 3 1 1 2 1 3 3 3 4 5 4 4 5 6 6 6 6 6 7 7 8 8 8 6
14 15 15 16 17 15 12 8 4 4 4 5 7 8 7 8 8 4 1 1 3 4 4 5 3 3 4 4 5 6 7 7 5 3 2 2 4 2 5 5 2 2 3 2 1 2 1 0 1 2 1 1 1 2 1 1 1 0 2 2 4 3 2 3 2 1 2 1 4 3 3 3 4 5 5 6 7 7 7 7 7 7 7 7 8 8 7
13 15 15 16 16 15 12 7 2 2 3 4 6 7 6 7 8 6 3 2 1 2 2 4 5 4 4 4 4 5 5 5 5 7 8 7 6 7 9 8 4 4 4 1 1 1 0 0 1 1 0 1 1 2 1 1 0 1 2 1 3 1 3 1 1 3 3 3 3 2 3 4 2 4 5 6 7 8 8 8 8 9 8 8 8 8 7
14 14 15 16 16 15 12 7 1 1 3 3 5 6 6 7 9 8 5 3 1 2 3 4 5 5 5 6 5 4 3 3 5 8 9 9 9 10 9 7 4 3 3 1 1 0 1 1 0 1 2 1 1 1 1 1 1 2 2 2 2 3 3 0 2 5 3 2 3 3 2 3 0 4 6 6 7 8 8 8 9 10 9 9 8 7 6
14 14 14 15 14 14 11 5 0 2 3 4 5 6 6 7 8 8 8 5 2 2 2 4 5 6 6 5 5 4 3 3 5 7 8 8 8 7 6 5 3 2 1 1 1 0 1 0 1 1 2 1 1 1 1 1 3 4 2 2 1 2 2 2 3 4 2 3 3 3 3 3 3 5 6 6 6 7 8 8 9 9 9 9 8 8 6
14 14 13 12 12 11 8 3 1 2 4 5 3 1 2 5 8 9 8 6 3 3 1 4 5 4 4 4 4 4 4 4 5 7 7 7 7 6 6 5 3 2 2 1 0 1 2 2 2 2 2 2 2 1 1 2 3 1 3 4 3 2 2 3 4 3 1 2 2 2 3 4 4 6 6 5 6 7 8 8 8 9 10 10 8 7 7
14 13 11 10 10 8 5 2 1 2 4 4 2 3 3 3 5 8 7 5 3 3 2 4 5 4 3 3 4 5 6 6 7 8 8 7 7 6 5 4 3 2 1 0 1 1 2 2 2 2 2 2 3 2 1 2 2 2 5 5 3 2 1 1 2 3 2 2 2 3 4 4 5 5 4 4 6 7 7 7 8 8 10 11 9 6 6
13 11 10 9 8 5 3 3 1 3 4 3 4 4 3 3 3 6 7 4 3 2 2 3 3 3 3 3 2 4 7 7 8 8 8 6 6 5 3 2 2 1 1 1 2 1 1 2 2 2 2 1 3 2 1 3 3 2 6 5 3 2 1 0 0 2 3 3 3 4 4 3 3 3 2 3 6 7 6 7 8 7 8 9 8 7 6
12 10 9 8 6 4 2 2 1 2 3 1 2 2 3 3 3 5 5 4 2 2 3 3 4 3 4 3 3 4 5 6 7 6 5 3 3 3 3 2 2 2 2 1 2 2 1 1 1 2 2 1 2 2 2 4 3 2 6 5 3 2 2 1 1 1 1 2 3 4 4 1 2 3 3 4 6 7 7 7 7 7 6 6 6 6 6
11 9 8 6 4 3 2 2 1 4 6 5 4 5 5 4 4 4 4 3 1 2 2 2 4 3 3 3 4 5 6 5 5 4 2 1 1 2 2 2 2 2 1 1 1 2 1 1 1 2 2 1 2 3 3 3 1 4 6 5 4 4 3 2 1 1 1 1 2 2 1 2 3 3 3 4 5 5 6 7 7 6 6 5 5 5 6
10 8 7 5 3 4 3 1 4 6 7 6 4 4 3 4 5 4 3 1 1 1 1 2 3 3 3 3 4 6 7 5 3 4 3 2 2 2 2 2 2 1 0 0 0 2 1 2 1 1 2 2 2 3 3 2 3 5 5 5 5 5 4 3 3 3 2 1 1 2 3 3 2 1 2 3 4 4 5 6 7 6 5 5 5 5 5
9 7 5 3 2 2 1 4 6 5 5 4 2 2 2 3 3 2 2 2 1 3 3 3 3 3 4 4 4 6 7 5 3 2 2 2 2 2 1 2 2 1 1 0 1 2 2 1 1 2 2 2 2 4 3 2 4 6 6 6 7 7 6 5 5 4 3 2 2 2 2 1 2 1 2 2 3 4 4 5 6 6 5 5 5 6 6
7 6 4 2 3 3 3 4 4 3 3 2 1 1 1 2 3 2 2 2 2 2 2 3 3 4 5 4 2 5 6 5 3 2 2 2 2 2 2 3 2 1 1 2 3 2 2 1 2 2 2 2 4 4 2 2 5 7 7 7 7 7 6 5 5 5 5 4 3 2 1 1 1 1 1 1 2 3 3 4 5 5 5 5 5 6 6
5 4 2 3 5 5 4 4 3 1 1 2 2 2 2 3 3 2 2 1 1 2 1 3 4 3 3 2 2 5 6 5 3 3 3 2 2 2 2 3 1 1 2 3 2 1 2 1 3 4 3 3 4 2 2 3 4 6 7 6 7 7 6 4 5 6 6 5 4 3 2 1 1 0 1 2 2 3 3 4 4 4 4 5 5 5 6
4 2 3 5 6 4 3 4 3 2 2 2 2 2 2 2 2 2 3 2 1 0 2 4 3 2 2 2 2 4 4 3 3 4 3 2 2 2 2 2 1 0 2 2 2 2 1 2 3 5 5 4 4 4 5 5 4 5 6 6 6 7 6 5 7 7 6 5 4 3 3 2 1 1 2 2 3 3 3 3 4 4 4 5 5 6 6
2 3 5 6 5 1 2 5 4 2 2 2 3 2 2 2 2 2 2 2 2 2 3 3 2 3 4 4 4 3 2 2 4 5 3 2 2 2 2 2 1 1 4 3 3 2 3 3 3 4 4 4 4 5 6 6 6 5 6 6 7 8 7 7 7 7 5 2 1 1 1 1 1 1 2 3 3 3 4 4 4 4 5 5 5 6 6
3 4 5 4 1 2 3 4 3 1 1 3 3 2 1 2 2 2 2 3 3 3 2 2 2 2 3 3 3 4 2 2 2 3 3 2 1 1 2 1 1 2 4 3 2 3 4 3 2 3 4 3 3 4 5 7 7 7 7 8 9 9 9 8 7 6 4 2 2 3 2 1 2 3 3 4 4 4 5 5 5 6 6 6 6 6 6
4 4 3 2 3 3 3 2 2 2 2 2 1 1 1 2 2 1 2 4 4 3 2 2 3 4 4 4 3 3 2 1 1 1 2 2 1 2 3 1 1 3 5 1 3 2 3 3 3 4 4 2 4 5 6 7 8 8 8 9 10 10 9 9 7 6 5 4 4 3 2 2 3 4 4 5 5 6 6 7 7 8 8 8 8 7 7
3 3 2 4 3 3 2 2 2 2 2 1 1 1 2 2 2 2 3 3 2 2 2 2 2 2 3 3 2 1 2 2 1 2 3 2 1 2 3 1 1 4 4 1 2 2 3 3 4 5 3 3 5 6 7 7 8 9 10 10 10 10 9 8 7 6 5 4 3 3 3 2 3 4 4 5 6 7 7 8 9 9 9 10 10 9 9
4 5 4 4 3 2 2 2 1 0 0 1 1 1 2 2 2 2 2 2 1 1 2 2 1 1 2 2 1 2 2 1 2 2 2 2 2 2 3 3 3 3 1 2 2 4 4 4 5 4 2 5 5 6 7 8 8 9 10 11 11 10 9 8 7 6 5 4 3 3 3 3 4 4 4 6 7 7 8 8 9 9 10 10 11 11 11
3 3 3 3 2 1 1 2 1 1 1 2 2 3 3 4 4 3 2 2 2 2 2 3 3 3 3 3 2 2 2 2 2 3 2 2 2 3 4 4 2 1 1 2 5 5 4 5 5 3 2 4 5 6 7 8 8 9 9 10 11 11 9 8 7 6 5 4 3 3 3 3 3 3 4 5 6 7 8 8 8 9 10 11 11 11 11
4 3 2 2 1 0 1 1 1 2 2 2 3 3 2 2 3 2 2 1 1 2 2 3 3 3 3 3 2 2 2 2 3 3 3 2 3 5 4 2 1 2 3 5 5 5 4 5 4 3 3 5 6 7 8 8 9 9 9 10 10 10 9 8 7 5 4 4 3 3 3 2 2 2 3 5 5 7 8 8 8 9 9 10 11 11 11
3 2 1 1 1 1 1 1 2 2 2 2 2 2 0 1 1 1 2 1 1 2 2 2 3 3 3 3 2 2 2 3 3 3 3 3 4 3 1 1 2 4 5 6 6 6 5 4 2 1 3 5 7 8 8 8 9 9 9 9 10 9 8 7 6 4 4 3 3 3 2 2 2 3 4 6 7 8 9 9 9 10 10 10 11 11 11
1 0 1 2 1 2 3 2 2 1 1 1 2 1 1 2 1 1 1 1 1 1 1 1 1 1 2 2 2 2 2 3 3 3 2 3 3 2 1 3 5 5 5 6 6 5 5 3 1 1 4 6 8 9 9 9 9 10 9 9 8 8 8 7 5 4 4 3 3 3 3 3 3 4 6 7 8 9 9 10 10 11 11 12 13 13 13
1 1 1 2 1 2 3 2 1 1 1 2 1 1 2 0 1 1 2 1 1 1 2 3 2 2 2 3 3 3 3 3 3 2 2 2 3 2 3 5 6 5 5 6 6 4 4 2 1 3 5 6 8 9 9 9 10 10 10 9 8 8 8 6 5 4 4 3 3 3 3 4 5 6 7 8 9 9 9 10 10 11 12 13 14 14 14
1 1 1 2 2 2 1 1 2 2 2 2 2 1 1 2 2 1 2 2 2 1 1 1 1 2 2 2 2 4 4 4 3 3 3 4 4 4 4 6 6 6 5 5 4 3 2 1 4 5 6 7 8 8 8 9 9 9 9 9 8 8 7 6 5 5 4 3 3 4 4 5 6 7 7 8 8 9 10 10 11 11 12 13 13 14 15
1 1 2 2 3 2 1 1 3 3 3 4 3 3 3 3 2 1 2 2 2 2 2 2 2 2 2 2 3 5 4 2 3 4 5 6 5 5 5 7 7 6 4 4 3 2 1 3 5 5 6 8 8 8 9 9 9 8 9 9 8 7 6 6 6 5 4 3 3 4 5 5 6 6 6 7 8 10 11 11 11 11 12 13 13 14 14
1 2 3 3 3 2 1 1 3 2 2 3 3 3 2 3 2 2 2 2 3 3 3 3 2 2 2 3 3 3 2 2 3 5 6 5 5 5 7 8 7 4 3 2 0 1 2 3 4 5 7 8 8 8 9 10 10 9 9 9 8 7 7 6 5 4 3 3 4 4 5 5 5 5 6 7 9 10 11 11 11 12 13 14 15 15 15
2 2 2 2 3 3 3 3 3 2 2 2 1 1 1 2 1 2 3 3 4 3 2 1 1 2 3 3 2 2 2 3 4 6 7 6 4 5 7 6 3 1 1 2 2 2 2 3 4 5 7 8 9 10 10 11 10 10 9 8 8 8 7 6 4 3 3 4 4 4 4 4 5 6 7 7 8 9 10 11 12 13 14 15 16 16 16
Wind_Direction
7 6 6 4 4 3 1 358 356 352 354 360 347 316 255 214 115 76 16 344 280 263 183 136 159 88 95 96 76 50 12 25 36 29 19 19 33 51 50 44 45 47 47 85 131 109 73 80 90 103 98 70 42 18 6 326 263 267 293 96 108 260 247 250 245 228 158 94 136 185 219 228 226 219 222 227 222 220 227 240 235 223 224 221 236 245 188
8 7 7 5 4 4 2 0 358 355 355 357 343 306 198 95 80 93 39 1 285 259 175 147 139 107 123 128 103 88 52 36 33 37 36 26 13 41 57 45 44 50 40 80 91 61 80 86 71 88 100 77 46 21 14 344 293 319 355 12 177 226 236 246 235 213 188 167 169 175 187 209 221 217 221 254 254 239 239 254 256 240 230 221 228 240 187
10 9 8 6 5 4 3 2 360 356 355 357 346 304 191 133 148 126 80 31 291 283 20 136 138 127 140 122 101 117 91 52 24 29 43 38 21 36 62 33 27 61 77 103 86 42 353 96 97 116 103 91 66 35 21 358 354 28 8 333 288 254 251 259 243 227 211 193 186 181 183 193 198 196 200 241 247 243 242 243 236 233 233 225 232 244 147
12 10 8 7 5 4 5 4 1 357 355 355 343 293 278 208 177 152 142 135 84 77 39 257 156 140 151 126 91 89 103 91 47 18 38 47 37 43 62 13 322 72 95 129 101 70 74 111 146 141 113 103 72 35 20 23 25 21 341 300 278 243 206 301 275 256 257 45 60 45 79 195 182 170 175 198 222 235 241 240 238 238 237 233 235 239 203
14 11 9 9 6 4 6 6 3 360 356 355 339 276 273 244 199 141 155 155 138 142 151 185 152 138 171 143 92 88 112 112 80 31 33 46 35 36 53 31 353 59 58 154 100 79 99 113 122 118 111 123 104 71 33 43 29 330 256 258 274 241 193 281 337 53 53 51 69 71 78 174 161 157 167 174 189 218 230 234 250 260 246 243 227 218 232
14 11 10 9 7 6 5 8 8 3 358 358 343 262 267 279 178 45 339 245 157 140 136 151 148 137 142 111 151 168 137 109 77 58 61 53 14 346 63 56 46 52 20 257 108 104 120 114 103 97 106 153 172 161 99 50 27 300 244 276 300 259 202 280 326 91 75 63 91 102 111 113 111 121 125 171 191 209 228 233 268 298 252 260 244 210 241
15 13 11 10 9 8 6 9 11 7 5 11 352 309 37 138 134 97 310 284 89 89 107 154 152 128 122 117 131 157 117 97 71 32 5 78 34 354 53 66 52 57 46 19 106 85 75 107 98 52 57 30 293 192 138 52 22 349 17 62 339 277 191 327 281 168 95 71 100 168 192 147 141 109 71 109 194 194 225 220 185 325 266 322 310 221 235
17 13 12 10 10 10 8 10 13 12 17 27 9 11 28 2 58 86 203 146 99 110 139 173 162 133 149 141 113 118 95 99 94 38 348 14 67 40 78 76 54 53 63 77 93 62 29 71 86 25 354 50 10 18 50 15 5 10 19 37 351 267 212 317 270 219 165 81 58 215 227 215 171 104 52 18 205 168 19 107 31 301 308 8 304 215 190
16 12 10 10 11 11 10 11 13 17 25 31 24 31 15 342 353 322 244 144 120 160 151 177 187 157 171 153 133 144 109 96 106 80 29 15 46 50 63 78 57 59 76 77 80 71 40 48 62 20 2 25 9 11 24 351 336 31 34 7 344 297 230 214 247 235 200 182 284 237 244 251 201 105 31 3 337 17 26 41 16 344 335 332 265 220 145
12 9 7 8 11 12 12 12 12 18 29 31 22 23 6 335 263 289 272 181 157 195 161 178 211 152 99 113 130 143 120 112 117 92 71 45 42 33 10 355 299 160 95 67 46 36 11 13 28 12 359 2 345 343 4 342 333 3 12 357 12 341 277 225 250 251 214 209 260 269 246 245 216 88 20 5 7 4 12 68 41 6 336 304 276 354 21
7 6 3 4 8 11 12 14 12 16 29 35 27 16 7 340 289 294 271 202 161 186 186 188 205 132 118 137 145 143 133 133 119 354 102 99 56 35 22 341 282 239 67 40 6 352 349 355 9 347 308 312 347 52 46 19 3 350 334 325 27 354 309 297 296 263 229 218 258 258 238 235 226 47 16 1 7 2 354 37 44 26 2 346 340 3 2
2 4 1 360 3 8 11 13 14 15 26 35 30 15 6 340 297 293 276 217 163 180 200 163 110 139 149 150 146 138 135 130 101 58 107 110 93 66 55 24 300 25 30 353 315 305 263 205 188 197 209 197 139 141 135 92 84 16 326 320 327 319 303 315 295 267 258 234 241 244 235 208 111 55 18 359 354 355 346 13 44 32 21 360 338 340 344
357 360 359 357 358 5 8 11 15 15 18 27 27 12 5 350 308 298 300 254 176 177 187 123 114 150 155 143 133 124 115 113 111 104 102 108 113 101 73 43 10 11 352 315 286 247 222 194 184 199 193 186 191 181 131 73 62 78 24 336 320 307 298 298 276 265 266 242 231 235 215 115 116 61 18 8 357 354 343 33 55 23 6 352 348 359 359
356 356 356 356 355 0 5 8 12 14 14 20 22 7 5 359 332 308 311 272 174 144 174 152 142 151 145 134 135 133 127 133 133 110 102 105 100 90 76 46 19 3 327 288 236 222 222 201 192 195 184 192 211 198 158 113 66 56 55 38 332 310 303 292 272 258 260 255 243 210 175 142 95 34 19 11 357 349 336 298 58 25 6 352 350 358 355
353 352 353 354 353 357 1 5 9 12 11 17 18 2 5 6 349 307 308 295 176 152 172 165 142 146 143 137 145 155 151 157 152 121 122 137 95 91 80 41 14 352 299 268 238 218 220 220 212 199 183 193 210 189 169 162 117 79 53 60 31 323 327 317 286 256 260 262 250 222 211 197 53 29 16 4 349 337 319 276 74 30 8 350 341 345 354
350 349 352 352 351 353 356 1 9 10 7 14 21 6 354 5 1 309 287 299 216 165 114 62 104 138 139 137 154 192 186 159 158 158 156 155 141 117 101 51 5 333 278 248 237 232 227 225 229 227 186 174 184 157 167 187 165 133 133 189 179 201 209 272 267 246 253 260 248 245 238 191 31 7 356 354 347 328 282 238 168 30 3 344 334 333 324
351 347 347 349 349 350 352 358 7 10 6 9 17 15 336 359 6 339 284 293 252 117 82 71 139 159 148 148 158 168 236 131 160 258 179 128 133 144 88 297 190 273 273 248 216 219 225 211 221 228 128 78 295 204 152 196 194 162 170 202 213 229 221 249 258 239 249 268 256 256 158 74 16 350 343 346 346 323 253 223 114 11 351 336 328 322 298
350 343 342 345 345 345 349 357 5 11 11 8 12 20 329 353 4 358 294 280 210 106 84 54 303 149 87 58 97 96 49 276 224 259 228 121 150 153 7 341 215 168 244 253 229 218 213 188 238 248 116 102 273 258 135 181 203 159 140 226 238 243 252 289 280 253 188 244 256 248 109 63 358 343 342 338 326 277 242 261 352 343 331 324 319 310 295
347 338 336 341 343 342 348 358 5 11 14 9 12 21 328 352 4 4 307 287 257 112 97 56 353 69 64 49 90 101 79 311 311 265 236 165 124 83 12 305 257 208 237 241 231 235 229 173 162 293 192 148 181 271 139 146 116 102 178 246 257 246 237 251 261 272 284 253 267 253 125 52 347 334 343 342 318 242 306 340 328 317 318 320 313 302 292
346 336 334 339 341 341 348 358 5 14 16 14 18 18 320 351 4 7 350 323 188 115 99 70 56 78 73 56 74 83 95 209 228 275 274 80 83 243 225 194 193 218 218 229 210 224 266 168 133 265 272 133 128 268 190 122 80 50 281 270 322 345 283 250 222 313 280 236 255 264 142 44 356 339 358 12 359 347 342 329 316 318 325 325 318 307 294
345 338 336 339 341 343 350 356 3 16 22 18 24 25 325 346 357 7 19 344 289 121 102 81 68 72 65 51 46 36 23 23 10 316 317 69 63 282 267 84 49 325 314 317 308 131 320 358 120 209 300 87 140 248 205 148 137 101 349 293 313 9 295 284 48 22 291 259 259 347 32 35 14 7 36 37 15 349 327 317 319 330 334 333 328 319 312
344 340 335 336 339 343 349 352 1 20 28 28 37 39 344 347 353 8 43 25 352 80 93 88 78 77 72 63 54 43 37 33 15 337 313 108 104 299 308 78 52 4 9 313 283 123 140 228 172 196 194 158 179 184 223 258 184 132 133 252 276 46 349 320 357 40 358 357 46 68 59 38 34 46 60 42 13 346 326 322 328 336 342 344 335 324 328
342 338 332 332 337 342 346 348 1 25 33 41 52 44 357 354 0 13 62 65 85 97 105 123 124 112 98 79 63 55 52 45 42 26 337 329 124 150 331 59 77 66 31 315 318 3 59 196 352 307 209 149 295 205 202 252 243 132 134 173 83 67 18 297 301 82 91 64 67 91 87 56 47 60 65 45 26 10 345 338 346 349 349 350 343 335 335
333 332 329 329 334 340 343 344 359 34 44 49 57 51 20 9 16 28 197 204 154 126 127 147 145 110 93 84 70 62 52 35 39 59 340 310 292 182 121 72 49 160 112 15 334 332 336 59 16 279 230 69 313 258 224 242 235 126 182 176 130 103 324 278 256 174 187 158 88 93 97 65 47 43 47 39 28 18 3 354 355 354 353 357 353 347 344
327 330 327 326 332 337 341 342 356 46 62 61 58 55 34 12 18 35 351 245 171 160 160 151 117 69 83 95 76 59 45 28 29 62 68 329 327 16 103 95 34 42 92 89 271 253 254 97 211 241 198 96 286 282 314 354 63 105 261 222 129 115 282 267 233 242 246 118 87 99 135 102 58 35 31 27 16 12 9 4 359 358 3 9 5 359 358
327 328 323 322 327 334 337 337 340 66 83 81 67 63 50 26 31 43 9 306 213 196 193 145 117 112 127 109 69 42 33 35 60 74 76 75 69 81 105 111 88 79 101 113 303 314 308 273 249 271 52 80 293 313 4 19 71 224 266 6 79 153 244 252 271 258 226 149 106 105 183 174 104 34 20 12 3 359 0 2 3 7 11 13 13 16 17
324 322 318 319 325 332 333 328 306 120 114 108 79 67 57 36 36 42 23 332 245 198 191 157 132 128 115 84 60 50 46 63 87 86 80 80 85 95 108 115 112 114 125 123 89 86 245 205 85 5 42 72 272 298 5 21 290 254 238 118 117 241 246 186 257 257 240 138 77 30 288 236 35 18 359 352 353 348 348 356 2 6 10 10 9 15 23
318 315 313 317 326 333 331 323 280 144 144 134 101 73 58 39 32 36 35 19 330 260 193 140 135 141 126 86 60 70 92 98 100 96 90 89 90 94 94 89 95 113 102 88 122 184 249 111 82 71 69 62 242 220 132 188 241 252 223 124 112 291 313 342 291 284 343 49 50 20 320 297 348 356 337 340 348 339 336 348 355 357 4 9 10 9 11
313 310 312 319 328 333 333 337 124 158 159 143 125 86 57 46 29 20 25 28 347 302 191 131 139 153 134 89 74 90 108 118 115 106 98 95 89 84 78 70 57 50 51 48 67 82 78 54 41 71 63 349 304 222 181 224 235 215 105 100 82 30 13 358 332 320 359 41 34 358 307 300 322 330 326 334 342 332 329 336 342 346 353 360 8 14 11
311 308 313 321 327 332 345 11 80 163 163 159 204 240 207 117 39 9 7 21 2 311 229 169 159 147 114 89 98 118 122 122 116 105 97 92 85 77 76 75 62 47 63 79 37 67 109 103 83 91 73 1 305 260 238 258 251 117 109 114 114 112 103 5 335 313 316 349 353 318 296 297 307 310 314 332 339 334 328 327 331 336 342 347 356 9 12
310 307 313 321 323 327 355 25 56 153 167 205 262 258 200 142 42 4 360 16 12 306 243 173 146 141 134 118 115 127 130 128 118 104 95 91 87 81 77 79 71 24 356 89 95 116 143 108 121 134 109 38 298 287 289 281 270 136 131 141 146 141 150 149 283 297 310 320 303 280 265 272 300 301 302 347 349 338 325 325 330 329 329 338 348 358 5
309 307 313 320 318 310 340 28 45 169 170 212 307 21 66 60 22 356 355 18 24 284 241 165 150 166 163 145 134 141 143 139 132 122 108 102 107 102 84 72 77 57 26 69 138 142 80 71 136 151 124 114 287 279 256 272 290 114 134 149 154 152 164 175 187 235 276 293 290 273 245 221 15 1 351 357 353 341 331 331 330 326 322 324 338 357 7
307 305 311 315 306 288 305 1 97 147 140 126 97 78 62 29 11 7 6 24 17 292 270 193 177 178 154 134 147 165 171 165 160 160 135 101 157 165 123 110 119 100 35 301 145 101 78 229 194 142 130 182 259 272 264 272 350 117 142 156 156 158 166 173 194 195 182 283 307 307 320 71 62 41 13 7 1 351 348 341 329 327 331 330 336 356 0
299 298 307 306 279 272 287 116 132 139 143 142 121 89 50 3 8 23 18 1 276 255 261 233 211 176 148 155 169 176 186 197 197 191 165 127 191 214 168 151 178 179 24 324 131 135 174 211 207 168 163 176 226 263 266 239 136 141 158 161 158 167 172 175 191 188 153 133 50 45 52 72 102 99 47 38 26 8 7 1 348 342 341 343 350 352 340
289 289 299 289 242 248 219 143 153 169 179 173 142 80 13 2 21 40 26 5 265 212 188 206 226 188 176 199 190 172 184 205 212 193 167 144 181 228 218 190 207 201 84 146 218 199 176 156 224 216 170 152 208 238 246 201 160 168 180 175 169 177 185 186 192 182 156 151 140 106 101 136 134 94 54 52 38 16 14 18 9 0 354 351 352 345 334
286 284 288 244 191 189 166 154 170 197 190 157 125 17 11 59 77 85 64 34 321 266 195 188 216 208 203 214 174 152 180 202 191 159 159 163 176 202 240 241 230 139 129 218 231 212 157 145 244 237 183 189 231 234 226 204 188 184 190 189 179 183 196 198 187 174 162 158 151 138 150 197 114 65 357 20 33 11 2 9 9 5 2 356 352 347 340
284 273 251 186 183 195 189 161 148 161 161 140 112 105 110 103 103 123 142 143 315 314 263 222 218 205 217 243 128 146 180 198 183 174 190 198 184 183 218 245 240 132 188 221 220 155 123 151 249 256 236 231 246 220 151 195 205 193 194 194 183 187 200 195 178 175 172 170 176 185 203 230 228 297 318 335 352 344 345 355 354 348 348 345 342 344 342
267 244 210 197 200 209 181 146 143 155 154 150 152 153 160 183 194 174 171 192 218 261 244 244 225 179 215 235 145 150 179 192 184 194 201 196 187 191 211 239 246 184 232 225 134 113 171 198 232 260 262 253 250 227 199 200 202 191 193 191 179 182 189 177 174 187 195 194 196 200 213 231 253 318 324 329 336 335 334 336 335 332 333 331 329 331 331
228 204 209 212 215 209 113 125 138 141 135 168 211 213 185 195 205 174 157 194 213 179 203 230 217 189 211 209 161 154 205 222 204 204 198 183 200 222 218 211 190 239 256 239 141 160 237 233 219 253 265 250 233 217 199 191 186 182 184 182 177 179 180 174 180 197 213 224 189 133 172 244 298 322 311 312 322 323 318 320 325 326 325 324 324 320 319
196 206 212 207 170 74 96 123 138 150 174 201 216 213 176 191 213 193 167 196 206 188 187 213 196 184 228 235 187 169 200 245 232 215 195 170 166 263 240 208 172 235 256 248 149 172 250 261 241 252 262 238 179 161 165 176 180 177 174 175 175 176 176 178 182 187 189 172 143 141 158 249 304 305 303 309 309 305 306 309 310 309 309 309 310 308 309
205 221 216 149 105 100 118 147 187 213 213 207 201 198 192 185 181 189 204 209 203 179 165 203 196 181 199 232 219 173 171 214 306 258 215 174 142 241 241 206 142 250 262 255 126 175 243 257 247 253 258 212 144 143 157 171 174 170 170 174 176 177 180 183 183 181 180 176 170 173 193 243 277 286 292 299 298 295 297 298 295 294 294 293 295 296 297
205 191 131 108 122 148 163 183 210 214 212 206 189 204 217 196 181 204 219 217 207 160 158 196 216 164 157 194 215 131 135 168 203 237 227 188 159 240 247 187 179 246 256 120 125 209 237 236 245 253 235 165 148 151 162 171 172 170 174 178 181 183 188 190 187 183 183 186 184 186 206 236 263 277 287 292 290 289 289 289 288 288 287 287 288 287 285
161 148 137 140 158 179 202 220 212 120 177 201 182 193 212 206 199 205 203 189 196 185 164 167 173 115 128 171 178 79 94 156 215 233 224 181 162 221 237 218 221 242 244 116 197 232 227 228 251 261 159 137 149 160 166 169 168 169 174 179 182 186 190 190 184 175 172 182 194 201 221 254 272 279 283 287 288 288 288 287 286 286 285 285 284 282 281
160 161 171 183 175 162 220 233 204 156 213 216 208 207 204 195 192 200 193 174 176 179 166 171 188 184 170 178 186 148 133 171 219 223 205 179 184 215 230 230 224 204 153 208 235 243 238 244 259 259 134 136 153 160 163 164 165 168 174 177 179 182 181 177 174 170 170 182 205 221 236 256 270 277 283 288 293 296 295 293 291 289 287 284 281 279 279
208 190 179 179 163 146 266 232 210 228 230 213 215 229 221 190 183 182 163 136 152 160 161 179 202 198 169 159 185 206 183 174 199 208 197 197 216 228 235 235 198 200 230 242 247 250 250 251 252 227 178 169 164 161 163 165 165 167 170 172 173 175 174 172 173 180 187 198 215 228 233 242 256 273 287 295 301 302 301 300 300 297 292 287 283 280 277
211 177 187 225 242 245 236 200 198 223 217 192 204 232 231 114 133 110 89 100 205 179 168 181 198 198 181 167 186 215 199 189 202 205 195 212 229 230 230 244 230 231 242 249 247 249 253 259 265 218 168 160 158 158 160 160 161 163 166 166 167 169 170 172 178 188 195 201 212 224 229 240 257 278 292 297 299 302 301 301 301 299 295 291 289 285 281
197 131 253 252 213 206 223 222 220 239 218 172 196 197 70 62 58 80 95 232 247 150 142 181 202 215 213 202 210 218 208 210 221 206 190 222 240 219 197 238 241 233 233 239 242 250 264 275 289 119 134 144 152 155 155 156 160 161 161 161 162 163 167 173 179 185 189 195 212 230 241 251 265 281 292 295 297 301 302 300 299 298 294 292 289 287 283
173 116 248 256 217 202 214 220 222 216 190 177 184 122 76 35 253 176 158 202 256 200 192 203 215 229 216 197 208 223 213 206 215 208 189 225 241 211 206 235 239 228 226 236 246 263 282 293 97 119 135 147 151 152 153 157 160 159 158 159 160 162 168 175 177 179 185 198 221 241 250 261 272 283 289 293 297 302 304 302 303 302 298 294 291 287 283
276 190 225 261 261 241 232 285 259 224 185 170 183 171 176 226 240 184 153 188 218 217 223 242 263 259 233 193 219 239 226 200 204 214 206 213 221 212 215 234 238 227 222 233 248 267 281 103 111 126 142 148 148 150 153 155 157 157 158 158 158 161 169 175 174 177 190 210 236 248 254 264 276 284 290 296 302 307 307 304 303 301 298 295 293 289 285
259 240 235 253 257 237 179 204 235 221 183 179 196 198 202 225 230 179 170 205 202 192 205 223 226 239 248 238 242 248 237 198 205 224 222 221 227 228 230 237 240 233 226 232 247 256 169 125 128 140 144 143 145 149 149 148 152 155 155 155 155 160 167 171 173 181 199 219 237 250 259 269 281 290 299 305 308 307 305 302 301 301 299 296 292 288 285
219 241 245 252 260 260 230 241 258 251 208 200 203 186 196 234 233 177 168 204 210 213 234 245 229 221 227 226 232 246 237 200 217 232 231 226 227 230 234 239 242 242 245 254 147 111 124 134 140 143 142 141 144 146 143 144 148 150 151 152 155 158 164 169 177 193 213 223 231 246 263 278 289 298 303 305 304 303 303 304 305 304 301 297 293 289 285
218 247 262 255 252 260 268 276 280 279 265 259 248 178 212 252 245 152 168 218 235 237 251 268 246 232 232 228 230 244 235 227 235 240 237 231 227 235 246 256 270 336 27 30 56 96 119 124 131 138 142 142 142 140 140 141 144 147 151 155 156 157 162 169 179 198 221 227 231 245 268 285 294 300 301 299 301 306 310 311 310 308 305 302 300 295 289